Погода в Теплой Речке

Россия / Кемеровская область (Кузбасс)     56°20′39″N   86°39′33″E
темп.,
°C
ветер,
м/с
пор.,
м/с
влажн.,
%
обл.,
%
осадки,
мм/ч
давл.,
гПа
погр.,
м
18 апреля, вс
вс1801:00−9ю3890100 0.0 1022105
04:00−7ю41090100 0.0 1019239
07:00−4ююз61486100 0.0 1016527
10:000юз7138356 0.0 1014918
13:00+2зюз61286100 0.1 10131126
16:00+2юз61195100 0.3 1012924
19:00+2ююз61283100 0.5 1010695
22:00+1ю51397100 0.3 1006607
19 апреля, пн
пн1901:00+1ююз61498100 1.2 1000671
04:00+1юз51298100 1.6 996804
07:00−6ссз81294100 3.6 998635
10:00−9сз91490100 1.3 10091040
13:00−7зсз81069100 1.4 10161403
16:00−6зсз71073100 0.1 10191777
19:00−7зсз61076100 0.3 10211531
22:00−8з5118399 0.1 1022760
20 апреля, вт
вт2001:00−9зсз5108371 0.3 1023637
04:00−10з498986 0.0 1024594
07:00−10з489196 0.0 1025532
10:00−7зсз4678100 0.1 1025942
13:00−4зсз4665100 0.1 10251333
16:00−2зсз4656100 0.0 10241622
19:00−3зсз3568100 0.1 1024788
22:00−8юз228894 0.0 102426
21 апреля, ср
ср2101:00−7ю2482100 0.0 102470
04:00−6ююв3782100 0.0 1023177
07:00−5ю2683100 0.0 1023199
10:00−3ю3573100 0.0 1024889
13:00−2ю3478100 0.6 1024911
16:00−1вюв1173100 1.0 1024665
19:00−1в2374100 1.4 1026603
22:00−3св228673 0.0 102848
22 апреля, чт
чт2201:00−4св26898 0.0 1030148
04:00−4ссв379168 0.0 1032217
07:00−4ссв38845 0.0 1034300
10:00−1ссв57655 0.0 1036942
13:00+1ссв4653100 0.1 10371587
16:00+2ссв464799 0.1 10381853
19:00+1ссв4768100 0.4 1040617
22:00−2с398514 0.1 1042221